Weather History for KOLM - February, 2013

Change the Weather History Date:

Saturday, February 23, 2013

  Actual Average Record
Temperature  
Mean Temperature 43 °F 42 °F  
Max Temperature 49 °F 50 °F 64 °F (1995)
Min Temperature 36 °F 33 °F 20 °F (2005)
Degree Days  
Heating Degree Days 22 23  
Month to date heating degree days 542 552  
Since 1 July heating degree days 3580 3603  
Cooling Degree Days 0 0  
Month to date cooling degree days 0 0  
Year to date cooling degree days 0 0  
Moisture  
Dew Point 34 °F    
Average Humidity 74    
Maximum Humidity 92    
Minimum Humidity 56    
Precipitation  
Precipitation 0.03 in 0.18 in 2.37 in (1950)
Month to date precipitation 2.41 4.38  
Year to date precipitation 6.32 12.22  
Sea Level Pressure  
Sea Level Pressure 30.19 in    
Wind  
Wind Speed 12 mph (SW)    
Max Wind Speed 21 mph    
Max Gust Speed 27 mph    
Visibility 10 miles    
Events Rain    
T = Trace of Precipitation, MM = Missing Value Source: NWS Daily Summary

Daily Weather History Graph

Daily Weather History Graph

Search for Another Location

Airport or City:

Trip Planner

Search our weather history database for the weather conditions in past years. The results will help you decide how hot, cold, wet, or windy it might be!

Date:

Astronomy

Feb. 23, 2013 Rise Set
Actual Time 7:01 AM PST 5:48 PM PST
Civil Twilight 6:30 AM PST 6:19 PM PST
Nautical Twilight 5:55 AM PST 6:54 PM PST
Astronomical Twilight 5:20 AM PST 7:30 PM PST
Moon 4:01 PM PST (2/23) 5:32 AM PST (2/23)
Length of Visible Light 11h 48m
Length of Day
10h 47m
Waxing Gibbous, 96% of the Moon is Illuminated
Feb 23
Waxing Gibbous
Feb 25
Full
Mar 4
Last Quarter
Mar 11
New
Mar 19
First Quarter

Hourly Weather History & Observations

Time (PST) Temp. Windchill Dew Point Humidity Pressure Visibility Wind Dir Wind Speed Gust Speed Precip Events Conditions
12:15 AM 37.4 °F 30.8 °F 35.6 °F 93% 29.98 in 10.0 mi South 9.2 mph - N/A   Mostly Cloudy
12:43 AM 37.0 °F 29.8 °F 35.1 °F 93% 29.98 in 10.0 mi South 10.4 mph - 0.00 in   Overcast
12:54 AM 37.0 °F 29.8 °F 35.1 °F 93% 29.99 in 10.0 mi South 10.4 mph - 0.00 in   Overcast
1:32 AM 37.0 °F 29.8 °F 35.1 °F 93% 29.98 in 9.0 mi South 10.4 mph - 0.00 in Rain Light Rain
1:54 AM 37.0 °F 29.3 °F 35.1 °F 93% 29.99 in 9.0 mi South 11.5 mph - 0.01 in Rain Light Rain
2:54 AM 37.0 °F 28.9 °F 36.0 °F 96% 29.99 in 8.0 mi SSW 12.7 mph - 0.01 in Rain Light Rain
3:54 AM 37.9 °F 30.5 °F 37.0 °F 97% 30.01 in 10.0 mi SSW 11.5 mph - 0.01 in   Overcast
4:54 AM 41.0 °F 34.3 °F 37.0 °F 86% 30.04 in 10.0 mi WSW 11.5 mph - N/A   Overcast
5:54 AM 41.0 °F 33.5 °F 35.1 °F 79% 30.06 in 10.0 mi WSW 13.8 mph - 0.00 in   Mostly Cloudy
6:54 AM 41.0 °F 32.5 °F 34.0 °F 76% 30.09 in 10.0 mi WSW 17.3 mph 23.0 mph N/A   Partly Cloudy
7:54 AM 41.0 °F 33.1 °F 34.0 °F 76% 30.12 in 9.0 mi WSW 15.0 mph - N/A   Clear
8:54 AM 44.1 °F 37.4 °F 33.1 °F 65% 30.14 in 10.0 mi WSW 13.8 mph 23.0 mph N/A   Partly Cloudy
9:54 AM 45.0 °F 39.3 °F 36.0 °F 71% 30.18 in 9.0 mi West 11.5 mph 25.3 mph N/A   Mostly Cloudy
10:54 AM 46.0 °F 39.3 °F 34.0 °F 63% 30.20 in 10.0 mi West 16.1 mph 24.2 mph N/A   Scattered Clouds
11:54 AM 46.9 °F - 34.0 °F 61% 30.22 in 10.0 mi WSW 16.1 mph 26.5 mph N/A   Scattered Clouds
12:54 PM 46.0 °F 39.3 °F 34.0 °F 63% 30.23 in 10.0 mi WSW 16.1 mph - N/A   Scattered Clouds
1:54 PM 46.0 °F 41.4 °F 34.0 °F 63% 30.25 in 10.0 mi WSW 9.2 mph - N/A   Mostly Cloudy
2:54 PM 48.0 °F - 33.1 °F 56% 30.27 in 10.0 mi West 10.4 mph - N/A   Partly Cloudy
3:54 PM 45.0 °F 41.2 °F 34.0 °F 65% 30.29 in 10.0 mi West 6.9 mph - N/A   Scattered Clouds
4:54 PM 44.1 °F 38.1 °F 30.0 °F 58% 30.30 in 10.0 mi WSW 11.5 mph - N/A   Partly Cloudy
5:54 PM 43.0 °F 37.2 °F 32.0 °F 65% 30.32 in 10.0 mi West 10.4 mph - N/A   Partly Cloudy
6:54 PM 42.1 °F 36.1 °F 32.0 °F 67% 30.34 in 10.0 mi WSW 10.4 mph - N/A   Partly Cloudy
7:54 PM 42.8 °F 36.6 °F 33.8 °F 70% 30.36 in 10.0 mi WSW 11.5 mph - N/A   Clear
8:54 PM 39.9 °F 34.5 °F 33.1 °F 77% 30.37 in 10.0 mi SSW 8.1 mph - N/A   Clear
9:54 PM 39.0 °F 33.4 °F 34.0 °F 82% 30.39 in 10.0 mi SSW 8.1 mph - N/A   Overcast
10:54 PM 39.9 °F 32.9 °F 34.0 °F 79% 30.39 in 10.0 mi SW 11.5 mph - N/A   Overcast
11:54 PM 39.9 °F 34.5 °F 35.1 °F 83% 30.40 in 10.0 mi SW 8.1 mph - N/A   Overcast